Location: Castillon
(43.0896°N, 0.2156°E)
Time: 14:36:43
(UTC+00:00)

Terra - Pass Details

Date: 16 June 2021
Orbit: 701 x 703 km, 98.2° (Epoch: 04 August)

Event Time Altitude Azimuth Distance (km) Brightness Sun altitude
Exits shadow 21:05:51 16° 121° (ESE) 1,779 3.3 -12.4°
Maximum altitude 21:08:53 32° 68° (ENE) 1,211 2.9 -12.8°
Drops below altitude 10° 21:13:05 10° 6° (N) 2,181 5.0 -13.2°
Sets 21:15:32 0° 357° (N) 3,104 6.1 -13.5°
